This is the latest recevied weather packets stored in our database for station/object LY3FF-10. If no packets are shown the sender has not sent any weather packets the latest 10 day(s).
| Time | Temp. | Humidity | Pressure | Rain* | Wind** | Luminosity | Snow |
|---|---|---|---|---|---|---|---|
| 1787801418 | 11.11° C | 84% | 1005.6 hPa | - | - | - | - |
| 1787800680 | 10.56° C | 84% | 1005.6 hPa | - | - | - | - |
| 1787799950 | 10.56° C | 84% | 1005.4 hPa | - | - | - | - |
| 1787799150 | 11.11° C | 84% | 1005.3 hPa | - | - | - | - |
| 1787798410 | 11.11° C | 84% | 1005.4 hPa | - | - | - | - |
| 1787797684 | 11.11° C | 84% | 1005.4 hPa | - | - | - | - |
| 1787796884 | 11.11° C | 83% | 1005.2 hPa | - | - | - | - |
| 1787796003 | 11.67° C | 83% | 1005.2 hPa | - | - | - | - |
| 1787795215 | 11.67° C | 83% | 1005.1 hPa | - | - | - | - |
| 1787794415 | 11.67° C | 83% | 1005 hPa | - | - | - | - |
| 1787793658 | 11.67° C | 83% | 1005.1 hPa | - | - | - | - |
| 1787792775 | 11.67° C | 82% | 1005.1 hPa | - | - | - | - |
| 1787792040 | 11.67° C | 82% | 1005.2 hPa | - | - | - | - |
| 1787791175 | 12.22° C | 82% | 1005.1 hPa | - | - | - | - |
| 1787790300 | 12.22° C | 82% | 1005 hPa | - | - | - | - |
| 1787789400 | 12.22° C | 81% | 1004.9 hPa | - | - | - | - |
| 1787788544 | 12.22° C | 81% | 1005 hPa | - | - | - | - |
| 1787787725 | 12.78° C | 81% | 1004.9 hPa | - | - | - | - |
| 1787786835 | 12.78° C | 80% | 1004.9 hPa | - | - | - | - |
| 1787785932 | 12.78° C | 80% | 1004.9 hPa | - | - | - | - |
| 1787785055 | 13.33° C | 79% | 1005 hPa | - | - | - | - |
| 1787784284 | 13.33° C | 79% | 1005 hPa | - | - | - | - |
| 1787783530 | 13.33° C | 79% | 1004.9 hPa | - | - | - | - |
| 1787782664 | 13.33° C | 78% | 1005.1 hPa | - | - | - | - |
| 1787781835 | 13.33° C | 77% | 1005 hPa | - | - | - | - |
* Rain since midnight (hover to see other rain measurements)
** Current wind speed in m/s (hover to see current wind gust speed)